{"data":{"norad_id":65122,"intl_designator":"2025-170D","name":"GEESAT-4 04","alt_names":[],"object_type":"PAYLOAD","status":"ACTIVE","operator":null,"country":"PRC","launch_date":"2025-08-08","launch_site_code":"YSLA","launch_vehicle":null,"mission":null,"orbit_class":"UNKNOWN","rcs_meters":null,"size_class":null,"mass_kg":null,"dimensions":null,"purposes":[],"wikipedia_slug":null,"has_3d_model":false,"image_url":null,"decayed_at":null,"tle_current":{"epoch":"2026-09-21T22:44:33.503136Z","epoch_age_seconds":40530,"freshness":"FRESH","line1":"1 65122U 25170D   26264.94760999  .00000827  00000+0  12986-3 0  9999","line2":"2 65122  49.9714  40.0327 0029377 324.1358  35.7607 14.82395529 61409","mean_motion":14.82395529,"eccentricity":0.0029377,"inclination_deg":49.9714,"raan_deg":40.0327,"arg_perigee_deg":324.1358,"mean_anomaly_deg":35.7607,"bstar":0.00012986,"rev_number":6140,"period_min":97.140066320316,"perigee_km":601.20916343994,"apogee_km":642.33643346978,"semimajor_km":6999.9097984549,"source":"CELESTRAK","updated_at":"2026-09-22T09:00:30.143238Z"}}}